Content
SEND FEEDBACK

Daily
Averages
Monthly
Summary
French Polynesia

PAPEETE, FRENCH POLYNESIA


Home > Oceania > French Polynesia
Elevation: 7 feet     Latitude: 17 33S     Longitude: 149 36W

WEATHER
 
SELECT A DAY
Number of Records: 214,666;   Date Range: 6/30/96 - 10/29/14
 
SHARE

PRINT THIS DATA

[ ← Previous Day ]
WEATHER ALMANAC - MARCH 14, 2014
[ Next Day → ]
[ °C ]   °F
Weather ElementAverageHighLow
Temperature77.6 °F80.6 °F (12:30 am)75 °F (8:00 pm)
Dewpoint73.9 °F76 °F (2:00 am)69.8 °F (8:30 am)
Humidity87.9 %94 % (6:00 pm)78 % (5:00 am)
Barometer29.79 in29.86 in (8:30 am)29.74 in (2:00 pm)
Wind Speed10.6 mph28.8 mph (9:30 pm)
Wind Gust28.8 mph (7:30 pm)
Weather ElementAverage
Visibility5.5 mi
Wind DirectionSSW (207.6 °)

Weather ElementTotal
Precipitation---
Cooling Degree Days12.8 (Base 65)
Growing Degree Days27.8 (Base 50)
Averaged from 54 records on March 14, 2014
WEATHER CONDITIONS BREAKOUT
WIND DIRECTION BREAKOUT
WEATHER BY HOUR - MARCH 14, 2014
[ °C ]   °F
Local TimeTemperatureDewpointHumidityBarometerVisibilityWind DirectionWind SpeedGust SpeedPrecipitationEventsConditions
12:30 AM80.6 °F73.4 °F79 %29.80 in6.2 miNorth (350°)12.7 mphRainLight Rain
1:00 AM80.6 °F75.2 °F84 %29.77 in6.2 miNNW (340°)10.4 mphRainLight Rain
1:30 AM80.6 °F75.2 °F84 %29.77 in6.2 miNNE (20°)6.9 mphRainLight Rain
2:00 AM80.0 °F76.0 °F84 %29.78 in5.0 miNNE (20°)8.1 mphRainLight Rain
2:00 AM80.6 °F75.2 °F84 %29.77 in5.0 miNNE (20°)8.1 mphRainLight Rain
2:30 AM78.8 °F75.2 °F89 %29.77 in3.1 miWNW (300°)15.0 mphRainLight Rain
3:00 AM78.8 °F75.2 °F89 %29.77 in5.0 miNNW (340°)6.9 mphRainLight Rain
3:30 AM78.8 °F75.2 °F89 %29.77 in6.2 miWNW (300°)12.7 mphRainLight Rain
4:00 AM77.0 °F73.4 °F89 %29.77 in3.7 miNW (320°)9.2 mphRainLight Rain
4:30 AM77.0 °F71.6 °F83 %29.77 in6.2 miNNE (20°)10.4 mphRainLight Rain
5:00 AM78.0 °F72.0 °F78 %29.80 in22.0 miWNW (300°)10.4 mphRainLight Rain
5:00 AM77.0 °F71.6 °F83 %29.80 in6.2 miWNW (300°)10.4 mphRainLight Rain
5:30 AM77.0 °F73.4 °F89 %29.80 in6.2 miEast (90°)5.8 mphRainLight Rain
6:00 AM77.0 °F73.4 °F89 %29.80 in6.2 miENE (70°)4.6 mphRainLight Rain
6:30 AM77.0 °F73.4 °F89 %29.80 inNW (320°)12.7 mphRainLight Rain
7:00 AM77.0 °F73.4 °F89 %29.80 in6.2 miEast (90°)6.9 mphRainLight Rain
7:30 AM77.0 °F73.4 °F89 %29.83 in6.2 miENE (60°)5.8 mphRainLight Rain
8:00 AM76.0 °F72.0 °F84 %29.85 in5.0 miNE (50°)12.7 mphRainLight Rain
8:00 AM75.2 °F71.6 °F89 %29.83 in5.0 miNE (50°)12.7 mphRainLight Rain
8:30 AM75.2 °F69.8 °F83 %29.86 in6.2 miEast (100°)12.7 mphMostly Cloudy
9:00 AM77.0 °F71.6 °F83 %29.83 in6.2 miEast (90°)8.1 mphMostly Cloudy
9:30 AM77.0 °F73.4 °F89 %29.83 in4.3 miNorth (360°)6.9 mphRainLight Rain
10:00 AM78.8 °F73.4 °F83 %29.83 in6.2 miNorth (350°)5.8 mphRainLight Rain
10:30 AM78.8 °F75.2 °F89 %29.83 in6.2 miNorth (350°)3.5 mphRainLight Rain
11:00 AM79.0 °F74.0 °F81 %29.84 in7.0 miNNW (340°)13.8 mphRainLight Rain
11:00 AM78.8 °F75.2 °F89 %29.83 in6.2 miNNW (340°)13.8 mphRainLight Rain
11:30 AM78.8 °F75.2 °F89 %29.83 in6.2 miNNW (340°)11.5 mphRainLight Rain
12:00 PM78.8 °F75.2 °F89 %29.80 in6.2 miNorth (350°)10.4 mphRainLight Rain
12:30 PM78.8 °F75.2 °F89 %29.80 in6.2 miNorth (360°)9.2 mphRainLight Rain
1:00 PM78.8 °F73.4 °F83 %29.77 in6.2 miNorth (350°)9.2 mphRainLight Rain
1:30 PM78.8 °F75.2 °F89 %29.77 in6.2 miNorth (350°)6.9 mphRainLight Rain
2:00 PM79.0 °F75.0 °F83 %29.77 in9.0 miNNW (340°)8.1 mphRainLight Rain
2:00 PM78.8 °F75.2 °F89 %29.74 in6.2 miNNW (340°)8.1 mphRainLight Rain
2:30 PM78.8 °F75.2 °F89 %29.74 in6.2 miNE (50°)5.8 mphRainLight Rain
3:00 PM78.8 °F73.4 °F83 %29.74 in3.7 miENE (70°)6.9 mphRainLight Rain
3:30 PM78.8 °F75.2 °F89 %29.74 in6.2 miNE (50°)4.6 mphRainLight Rain
4:00 PM78.8 °F75.2 °F89 %29.74 in6.2 miVariable3.5 mphRainLight Rain
4:30 PM77.0 °F73.4 °F89 %29.74 in6.2 miENE (60°)4.6 mphRainLight Rain
5:00 PM76.0 °F74.0 °F90 %29.77 in5.0 miNNW (340°)13.8 mphRainLight Rain
5:00 PM77.0 °F73.4 °F89 %29.77 in5.0 miNNW (340°)13.8 mphRainLight Rain
5:30 PM77.0 °F73.4 °F89 %29.77 in6.2 miNNE (20°)10.4 mphRainLight Rain
6:00 PM75.2 °F73.4 °F94 %29.77 in6.2 miEast (80°)11.5 mphRainLight Rain
6:30 PM75.2 °F71.6 °F89 %29.77 in6.2 miEast (80°)12.7 mphRainLight Rain
7:00 PM75.2 °F73.4 °F94 %29.80 in1.9 miENE (60°)10.4 mphRainLight Rain
7:30 PM75.2 °F71.6 °F89 %29.77 in1.2 miEast (80°)17.3 mph28.8 mphRainLight Rain
8:00 PM75.0 °F72.0 °F89 %29.81 in1.0 miENE (70°)12.7 mphRainRain
8:00 PM75.2 °F73.4 °F94 %29.80 in0.9 miENE (70°)12.7 mphRainRain
8:30 PM75.2 °F73.4 °F94 %29.77 in5.6 miEast (90°)9.2 mphRainLight Rain
9:00 PM77.0 °F75.2 °F94 %29.80 in1.2 miNNW (330°)12.7 mphRainLight Rain
9:30 PM77.0 °F73.4 °F89 %29.80 in5.6 miNorth (360°)28.8 mphRainLight Rain
10:30 PM77.0 °F75.2 °F94 %29.80 in1.2 miNW (320°)12.7 mphRainLight Rain
11:00 PM77.0 °F76.0 °F94 %29.82 in2.0 miNNW (340°)19.6 mphRainRain
11:00 PM77.0 °F75.2 °F94 %29.80 in1.9 miNNW (340°)19.6 mphRainRain
11:30 PM78.8 °F75.2 °F89 %29.80 in5.6 miNNW (340°)20.7 mphRainLight Rain
Hourly data recorded from NTAA, located miles away from Papeete, French Polynesia







STORIES FROM OUR PARTNERS